Location: Oakhurst
(33.6448°N, 111.9543°W)
Time: 02:40:40
(UTC+00:00)

XW-2A - Visible Passes

Search period start: 26 July 2021 00:00
Search period end: 05 August 2021 00:00
Orbit: 422 x 437 km, 97.2° (Epoch: 25 July)

Date Brightness Start Highest point End Pass type
(mag) Time Alt. Az. Time Alt. Az. Time Alt. Az.
26 Jul ? 03:25:22 13° E 03:26:30 15° ENE 03:28:26 10° NE visible
26 Jul ? 04:58:36 20° W 04:58:39 20° W 05:01:12 10° NW visible
27 Jul ? 04:17:05 70° SSE 04:17:25 87° ENE 04:20:45 10° N visible
28 Jul ? 03:35:33 18° E 03:36:25 20° ENE 03:38:53 10° NNE visible
28 Jul ? 05:08:47 15° W 05:08:47 15° W 05:10:40 10° WNW visible
29 Jul ? 04:27:16 63° WSW 04:27:22 64° W 04:30:40 10° NNW visible
30 Jul ? 03:45:43 25° E 03:46:17 27° ENE 03:49:09 10° NNE visible
30 Jul ? 05:18:57 11° W 05:18:57 11° W 05:19:31 10° WNW visible
31 Jul ? 04:37:25 43° W 04:37:25 43° W 04:40:29 10° NNW visible
01 Aug ? 03:55:52 37° E 03:56:09 37° ENE 03:59:15 10° N visible
02 Aug ? 03:14:55 10° ENE 03:15:13 10° ENE 03:15:29 10° ENE visible
02 Aug ? 04:47:33 29° W 04:47:33 29° W 04:50:11 10° NW visible
03 Aug ? 04:05:59 54° ENE 04:05:59 54° ENE 04:09:14 10° N visible
04 Aug ? 03:24:25 13° E 03:24:58 14° ENE 03:26:44 10° NE visible
04 Aug ? 04:57:39 21° W 04:57:39 21° W 04:59:43 10° NW visible
